Year,Month,Day,Hour,Minute,Value (Times are PST for temperature in C)
2007,09,13,00,00,15.00
2007,09,13,00,01,14.90
2007,09,13,00,02,14.90
2007,09,13,00,03,14.80
2007,09,13,00,04,14.80
2007,09,13,00,05,14.70
2007,09,13,00,06,14.60
2007,09,13,00,07,14.60
2007,09,13,00,08,14.50
2007,09,13,00,09,14.40
2007,09,13,00,10,14.40
2007,09,13,00,11,14.30
2007,09,13,00,12,14.20
2007,09,13,00,13,14.20
2007,09,13,00,14,14.10
2007,09,13,00,15,14.00
2007,09,13,00,16,14.00
2007,09,13,00,17,13.90
2007,09,13,00,18,13.90
2007,09,13,00,19,13.80
2007,09,13,00,20,13.80
2007,09,13,00,21,13.70
2007,09,13,00,22,13.70
2007,09,13,00,23,13.70
2007,09,13,00,24,13.70
2007,09,13,00,25,13.60
2007,09,13,00,26,13.60
2007,09,13,00,27,13.50
2007,09,13,00,28,13.50
2007,09,13,00,29,13.50
2007,09,13,00,30,13.40
2007,09,13,00,31,13.40
2007,09,13,00,32,13.30
2007,09,13,00,33,13.30
2007,09,13,00,34,13.30
2007,09,13,00,35,13.30
2007,09,13,00,36,13.30
2007,09,13,00,37,13.20
2007,09,13,00,38,13.20
2007,09,13,00,39,13.10
2007,09,13,00,40,13.10
2007,09,13,00,41,13.00
2007,09,13,00,42,13.00
2007,09,13,00,43,13.00
2007,09,13,00,44,12.90
2007,09,13,00,45,12.90
2007,09,13,00,46,12.80
2007,09,13,00,47,12.80
2007,09,13,00,48,12.80
2007,09,13,00,49,12.80
2007,09,13,00,50,12.80
2007,09,13,00,51,12.70
2007,09,13,00,52,12.70
2007,09,13,00,53,12.70
2007,09,13,00,54,12.70
2007,09,13,00,55,12.60
2007,09,13,00,56,12.60
2007,09,13,00,57,12.60
2007,09,13,00,58,12.60
2007,09,13,00,59,12.60
2007,09,13,01,00,12.50
2007,09,13,01,01,12.50
2007,09,13,01,02,12.50
2007,09,13,01,03,12.50
2007,09,13,01,04,12.50
2007,09,13,01,05,12.40
2007,09,13,01,06,12.40
2007,09,13,01,07,12.40
2007,09,13,01,08,12.40
2007,09,13,01,09,12.30
2007,09,13,01,10,12.30
2007,09,13,01,11,12.30
2007,09,13,01,12,12.30
2007,09,13,01,13,12.30
2007,09,13,01,14,12.30
2007,09,13,01,15,12.30
2007,09,13,01,16,12.30
2007,09,13,01,17,12.30
2007,09,13,01,18,12.30
2007,09,13,01,19,12.30
2007,09,13,01,20,12.30
2007,09,13,01,21,12.30
2007,09,13,01,22,12.30
2007,09,13,01,23,12.20
2007,09,13,01,24,12.20
2007,09,13,01,25,12.20
2007,09,13,01,26,12.20
2007,09,13,01,27,12.20
2007,09,13,01,28,12.20
2007,09,13,01,29,12.20
2007,09,13,01,30,12.10
2007,09,13,01,31,12.10
2007,09,13,01,32,12.10
2007,09,13,01,33,12.10
2007,09,13,01,34,12.10
2007,09,13,01,35,12.10
2007,09,13,01,36,12.10
2007,09,13,01,37,12.10
2007,09,13,01,38,12.00
2007,09,13,01,39,12.00
2007,09,13,01,40,12.00
2007,09,13,01,41,12.00
2007,09,13,01,42,12.00
2007,09,13,01,43,11.90
2007,09,13,01,44,11.90
2007,09,13,01,45,11.90
2007,09,13,01,46,11.90
2007,09,13,01,47,11.80
2007,09,13,01,48,11.80
2007,09,13,01,49,11.80
2007,09,13,01,50,11.80
2007,09,13,01,51,11.80
2007,09,13,01,52,11.80
2007,09,13,01,53,11.80
2007,09,13,01,54,11.80
2007,09,13,01,55,11.80
2007,09,13,01,56,11.80
2007,09,13,01,57,11.80
2007,09,13,01,58,11.90
2007,09,13,01,59,11.90
2007,09,13,02,00,11.90
2007,09,13,02,01,12.00
2007,09,13,02,02,12.00
2007,09,13,02,03,12.00
2007,09,13,02,04,12.00
2007,09,13,02,05,12.10
2007,09,13,02,06,12.10
2007,09,13,02,07,12.10
2007,09,13,02,08,12.10
2007,09,13,02,09,12.10
2007,09,13,02,10,12.10
2007,09,13,02,11,12.10
2007,09,13,02,12,12.10
2007,09,13,02,13,12.10
2007,09,13,02,14,12.10
2007,09,13,02,15,12.10
2007,09,13,02,16,12.10
2007,09,13,02,17,12.10
2007,09,13,02,18,12.10
2007,09,13,02,19,12.10
2007,09,13,02,20,12.20
2007,09,13,02,21,12.20
2007,09,13,02,22,12.20
2007,09,13,02,23,12.20
2007,09,13,02,24,12.20
2007,09,13,02,25,12.20
2007,09,13,02,26,12.20
2007,09,13,02,27,12.20
2007,09,13,02,28,12.20
2007,09,13,02,29,12.20
2007,09,13,02,30,12.20
2007,09,13,02,31,12.10
2007,09,13,02,32,12.10
2007,09,13,02,33,12.10
2007,09,13,02,34,12.00
2007,09,13,02,35,12.00
2007,09,13,02,36,12.00
2007,09,13,02,37,11.90
2007,09,13,02,38,11.90
2007,09,13,02,39,11.90
2007,09,13,02,40,11.80
2007,09,13,02,41,11.80
2007,09,13,02,42,11.80
2007,09,13,02,43,11.80
2007,09,13,02,44,11.70
2007,09,13,02,45,11.70
2007,09,13,02,46,11.70
2007,09,13,02,47,11.60
2007,09,13,02,48,11.60
2007,09,13,02,49,11.60
2007,09,13,02,50,11.60
2007,09,13,02,51,11.60
2007,09,13,02,52,11.60
2007,09,13,02,53,11.60
2007,09,13,02,54,11.60
2007,09,13,02,55,11.60
2007,09,13,02,56,11.60
2007,09,13,02,57,11.60
2007,09,13,02,58,11.60
2007,09,13,02,59,11.60
2007,09,13,03,00,11.60
2007,09,13,03,01,11.60
2007,09,13,03,02,11.60
2007,09,13,03,03,11.50
2007,09,13,03,04,11.40
2007,09,13,03,05,11.40
2007,09,13,03,06,11.40
2007,09,13,03,07,11.40
2007,09,13,03,08,11.40
2007,09,13,03,09,11.40
2007,09,13,03,10,11.40
2007,09,13,03,11,11.40
2007,09,13,03,12,11.40
2007,09,13,03,13,11.40
2007,09,13,03,14,11.40
2007,09,13,03,15,11.40
2007,09,13,03,16,11.40
2007,09,13,03,17,11.30
2007,09,13,03,18,11.30
2007,09,13,03,19,11.30
2007,09,13,03,20,11.30
2007,09,13,03,21,11.30
2007,09,13,03,22,11.30
2007,09,13,03,23,11.30
2007,09,13,03,24,11.30
2007,09,13,03,25,11.30
2007,09,13,03,26,11.30
2007,09,13,03,27,11.30
2007,09,13,03,28,11.30
2007,09,13,03,29,11.20
2007,09,13,03,30,11.20
2007,09,13,03,31,11.20
2007,09,13,03,32,11.20
2007,09,13,03,33,11.20
2007,09,13,03,34,11.10
2007,09,13,03,35,11.10
2007,09,13,03,36,11.10
2007,09,13,03,37,11.10
2007,09,13,03,38,11.10
2007,09,13,03,39,11.10
2007,09,13,03,40,11.10
2007,09,13,03,41,11.00
2007,09,13,03,42,10.90
2007,09,13,03,43,10.90
2007,09,13,03,44,10.90
2007,09,13,03,45,10.90
2007,09,13,03,46,10.90
2007,09,13,03,47,10.90
2007,09,13,03,48,10.80
2007,09,13,03,49,10.80
2007,09,13,03,50,10.80
2007,09,13,03,51,10.80
2007,09,13,03,52,10.70
2007,09,13,03,53,10.70
2007,09,13,03,54,10.70
2007,09,13,03,55,10.70
2007,09,13,03,56,10.60
2007,09,13,03,57,10.60
2007,09,13,03,58,10.60
2007,09,13,03,59,10.60
2007,09,13,04,00,10.60
2007,09,13,04,01,10.60
2007,09,13,04,02,10.60
2007,09,13,04,03,10.60
2007,09,13,04,04,10.60
2007,09,13,04,05,10.60
2007,09,13,04,06,10.60
2007,09,13,04,07,10.60
2007,09,13,04,08,10.60
2007,09,13,04,09,10.60
2007,09,13,04,10,10.60
2007,09,13,04,11,10.60
2007,09,13,04,12,10.60
2007,09,13,04,13,10.60
2007,09,13,04,14,10.60
2007,09,13,04,15,10.60
2007,09,13,04,16,10.60
2007,09,13,04,17,10.60
2007,09,13,04,18,10.60
2007,09,13,04,19,10.60
2007,09,13,04,20,10.60
2007,09,13,04,21,10.60
2007,09,13,04,22,10.60
2007,09,13,04,23,10.60
2007,09,13,04,24,10.70
2007,09,13,04,25,10.70
2007,09,13,04,26,10.70
2007,09,13,04,27,10.70
2007,09,13,04,28,10.70
2007,09,13,04,29,10.70
2007,09,13,04,30,10.70
2007,09,13,04,31,10.70
2007,09,13,04,32,10.70
2007,09,13,04,33,10.70
2007,09,13,04,34,10.70
2007,09,13,04,35,10.70
2007,09,13,04,36,10.70
2007,09,13,04,37,10.70
2007,09,13,04,38,10.70
2007,09,13,04,39,10.70
2007,09,13,04,40,10.70
2007,09,13,04,41,10.70
2007,09,13,04,42,10.60
2007,09,13,04,43,10.60
2007,09,13,04,44,10.60
2007,09,13,04,45,10.60
2007,09,13,04,46,10.60
2007,09,13,04,47,10.60
2007,09,13,04,48,10.60
2007,09,13,04,49,10.60
2007,09,13,04,50,10.60
2007,09,13,04,51,10.60
2007,09,13,04,52,10.60
2007,09,13,04,53,10.60
2007,09,13,04,54,10.60
2007,09,13,04,55,10.60
2007,09,13,04,56,10.60
2007,09,13,04,57,10.60
2007,09,13,04,58,10.60
2007,09,13,04,59,10.50
2007,09,13,05,00,10.40
2007,09,13,05,01,10.40
2007,09,13,05,02,10.40
2007,09,13,05,03,10.40
2007,09,13,05,04,10.40
2007,09,13,05,05,10.40
2007,09,13,05,06,10.40
2007,09,13,05,07,10.30
2007,09,13,05,08,10.30
2007,09,13,05,09,10.30
2007,09,13,05,10,10.20
2007,09,13,05,11,10.20
2007,09,13,05,12,10.20
2007,09,13,05,13,10.10
2007,09,13,05,14,10.10
2007,09,13,05,15,10.10
2007,09,13,05,16,10.00
2007,09,13,05,17,9.90
2007,09,13,05,18,9.90
2007,09,13,05,19,9.90
2007,09,13,05,20,9.90
2007,09,13,05,21,9.80
2007,09,13,05,22,9.80
2007,09,13,05,23,9.70
2007,09,13,05,24,9.70
2007,09,13,05,25,9.70
2007,09,13,05,26,9.70
2007,09,13,05,27,9.70
2007,09,13,05,28,9.60
2007,09,13,05,29,9.60
2007,09,13,05,30,9.60
2007,09,13,05,31,9.50
2007,09,13,05,32,9.50
2007,09,13,05,33,9.50
2007,09,13,05,34,9.50
2007,09,13,05,35,9.40
2007,09,13,05,36,9.40
2007,09,13,05,37,9.40
2007,09,13,05,38,9.30
2007,09,13,05,39,9.30
2007,09,13,05,40,9.30
2007,09,13,05,41,9.20
2007,09,13,05,42,9.20
2007,09,13,05,43,9.20
2007,09,13,05,44,9.20
2007,09,13,05,45,9.20
2007,09,13,05,46,9.20
2007,09,13,05,47,9.20
2007,09,13,05,48,9.10
2007,09,13,05,49,9.10
2007,09,13,05,50,9.10
2007,09,13,05,51,9.00
2007,09,13,05,52,9.00
2007,09,13,05,53,9.00
2007,09,13,05,54,9.00
2007,09,13,05,55,9.00
2007,09,13,05,56,8.90
2007,09,13,05,57,8.90
2007,09,13,05,58,8.90
2007,09,13,05,59,8.90
2007,09,13,06,00,8.90
2007,09,13,06,01,8.90
2007,09,13,06,02,8.90
2007,09,13,06,03,8.90
2007,09,13,06,04,8.90
2007,09,13,06,05,8.80
2007,09,13,06,06,8.80
2007,09,13,06,07,8.80
2007,09,13,06,08,8.80
2007,09,13,06,09,8.80
2007,09,13,06,10,8.80
2007,09,13,06,11,8.80
2007,09,13,06,12,8.80
2007,09,13,06,13,8.80
2007,09,13,06,14,8.80
2007,09,13,06,15,8.80
2007,09,13,06,16,8.80
2007,09,13,06,17,8.80
2007,09,13,06,18,8.80
2007,09,13,06,19,8.80
2007,09,13,06,20,8.80
2007,09,13,06,21,8.80
2007,09,13,06,22,8.80
2007,09,13,06,23,8.80
2007,09,13,06,24,8.80
2007,09,13,06,25,8.80
2007,09,13,06,26,8.80
2007,09,13,06,27,8.80
2007,09,13,06,28,8.80
2007,09,13,06,29,8.80
2007,09,13,06,30,8.80
2007,09,13,06,31,8.80
2007,09,13,06,32,8.80
2007,09,13,06,33,8.80
2007,09,13,06,34,8.80
2007,09,13,06,35,8.80
2007,09,13,06,36,8.80
2007,09,13,06,37,8.80
2007,09,13,06,38,8.80
2007,09,13,06,39,8.80
2007,09,13,06,40,8.80
2007,09,13,06,41,8.80
2007,09,13,06,42,8.80
2007,09,13,06,43,8.80
2007,09,13,06,44,8.80
2007,09,13,06,45,8.80
2007,09,13,06,46,8.80
2007,09,13,06,47,8.80
2007,09,13,06,48,8.80
2007,09,13,06,49,8.80
2007,09,13,06,50,8.80
2007,09,13,06,51,8.80
2007,09,13,06,52,8.80
2007,09,13,06,53,8.80
2007,09,13,06,54,8.80
2007,09,13,06,55,8.80
2007,09,13,06,56,8.80
2007,09,13,06,57,8.80
2007,09,13,06,58,8.80
2007,09,13,06,59,8.80
2007,09,13,07,00,8.80
2007,09,13,07,01,8.80
2007,09,13,07,02,8.80
2007,09,13,07,03,8.80
2007,09,13,07,04,8.80
2007,09,13,07,05,8.80
2007,09,13,07,06,8.80
2007,09,13,07,07,8.80
2007,09,13,07,08,8.80
2007,09,13,07,09,8.80
2007,09,13,07,10,8.80
2007,09,13,07,11,8.80
2007,09,13,07,12,8.80
2007,09,13,07,13,8.80
2007,09,13,07,14,8.80
2007,09,13,07,15,8.80
2007,09,13,07,16,8.70
2007,09,13,07,17,8.70
2007,09,13,07,18,8.70
2007,09,13,07,19,8.70
2007,09,13,07,20,8.70
2007,09,13,07,21,8.70
2007,09,13,07,22,8.70
2007,09,13,07,23,8.70
2007,09,13,07,24,8.70
2007,09,13,07,25,8.70
2007,09,13,07,26,8.70
2007,09,13,07,27,8.70
2007,09,13,07,28,8.70
2007,09,13,07,29,8.70
2007,09,13,07,30,8.70
2007,09,13,07,31,8.80
2007,09,13,07,32,8.80
2007,09,13,07,33,8.80
2007,09,13,07,34,8.90
2007,09,13,07,35,8.90
2007,09,13,07,36,8.90
2007,09,13,07,37,8.90
2007,09,13,07,38,8.90
2007,09,13,07,39,8.90
2007,09,13,07,40,8.90
2007,09,13,07,41,8.90
2007,09,13,07,42,8.90
2007,09,13,07,43,8.90
2007,09,13,07,44,9.00
2007,09,13,07,45,9.00
2007,09,13,07,46,9.00
2007,09,13,07,47,9.10
2007,09,13,07,48,9.10
2007,09,13,07,49,9.10
2007,09,13,07,50,9.20
2007,09,13,07,51,9.20
2007,09,13,07,52,9.20
2007,09,13,07,53,9.20
2007,09,13,07,54,9.20
2007,09,13,07,55,9.30
2007,09,13,07,56,9.30
2007,09,13,07,57,9.40
2007,09,13,07,58,9.40
2007,09,13,07,59,9.40
2007,09,13,08,00,9.50
2007,09,13,08,01,9.50
2007,09,13,08,02,9.50
2007,09,13,08,03,9.60
2007,09,13,08,04,9.60
2007,09,13,08,05,9.60
2007,09,13,08,06,9.70
2007,09,13,08,07,9.70
2007,09,13,08,08,9.70
2007,09,13,08,09,9.70
2007,09,13,08,10,9.80
2007,09,13,08,11,9.80
2007,09,13,08,12,9.80
2007,09,13,08,13,9.90
2007,09,13,08,14,9.90
2007,09,13,08,15,10.00
2007,09,13,08,16,10.10
2007,09,13,08,17,10.10
2007,09,13,08,18,10.20
2007,09,13,08,19,10.30
2007,09,13,08,20,10.30
2007,09,13,08,21,10.40
2007,09,13,08,22,10.40
2007,09,13,08,23,10.50
2007,09,13,08,24,10.60
2007,09,13,08,25,10.60
2007,09,13,08,26,10.70
2007,09,13,08,27,10.70
2007,09,13,08,28,10.80
2007,09,13,08,29,10.90
2007,09,13,08,30,10.90
2007,09,13,08,31,10.90
2007,09,13,08,32,11.10
2007,09,13,08,33,11.10
2007,09,13,08,34,11.20
2007,09,13,08,35,11.30
2007,09,13,08,36,11.40
2007,09,13,08,37,11.40
2007,09,13,08,38,11.50
2007,09,13,08,39,11.60
2007,09,13,08,40,11.70
2007,09,13,08,41,11.80
2007,09,13,08,42,11.80
2007,09,13,08,43,11.90
2007,09,13,08,44,12.00
2007,09,13,08,45,12.10
2007,09,13,08,46,12.30
2007,09,13,08,47,12.40
2007,09,13,08,48,12.50
2007,09,13,08,49,12.60
2007,09,13,08,50,12.80
2007,09,13,08,51,12.90
2007,09,13,08,52,13.00
2007,09,13,08,53,13.10
2007,09,13,08,54,13.20
2007,09,13,08,55,13.30
2007,09,13,08,56,13.30
2007,09,13,08,57,13.40
2007,09,13,08,58,13.50
2007,09,13,08,59,13.60
2007,09,13,09,00,13.70
2007,09,13,09,01,13.90
2007,09,13,09,02,14.00
2007,09,13,09,03,14.10
2007,09,13,09,04,14.30
2007,09,13,09,05,14.50
2007,09,13,09,06,14.60
2007,09,13,09,07,14.70
2007,09,13,09,08,14.90
2007,09,13,09,09,15.00
2007,09,13,09,10,15.10
2007,09,13,09,11,15.30
2007,09,13,09,12,15.40
2007,09,13,09,13,15.50
2007,09,13,09,14,15.60
2007,09,13,09,15,15.60
2007,09,13,09,16,15.70
2007,09,13,09,17,15.80
2007,09,13,09,18,15.80
2007,09,13,09,19,15.90
2007,09,13,09,20,16.00
2007,09,13,09,21,16.10
2007,09,13,09,22,16.10
2007,09,13,09,23,16.20
2007,09,13,09,24,16.30
2007,09,13,09,25,16.30
2007,09,13,09,26,16.40
2007,09,13,09,27,16.40
2007,09,13,09,28,16.40
2007,09,13,09,29,16.50
2007,09,13,09,30,16.60
2007,09,13,09,31,16.60
2007,09,13,09,32,16.70
2007,09,13,09,33,16.70
2007,09,13,09,34,16.80
2007,09,13,09,35,16.80
2007,09,13,09,36,16.90
2007,09,13,09,37,17.00
2007,09,13,09,38,17.00
2007,09,13,09,39,17.10
2007,09,13,09,40,17.10
2007,09,13,09,41,17.20
2007,09,13,09,42,17.20
2007,09,13,09,43,17.30
2007,09,13,09,44,17.30
2007,09,13,09,45,17.30
2007,09,13,09,46,17.30
2007,09,13,09,47,17.30
2007,09,13,09,48,17.40
2007,09,13,09,49,17.40
2007,09,13,09,50,17.50
2007,09,13,09,51,17.50
2007,09,13,09,52,17.50
2007,09,13,09,53,17.60
2007,09,13,09,54,17.60
2007,09,13,09,55,17.70
2007,09,13,09,56,17.70
2007,09,13,09,57,17.80
2007,09,13,09,58,17.80
2007,09,13,09,59,17.90
2007,09,13,10,00,17.90
2007,09,13,10,01,17.90
2007,09,13,10,02,17.90
2007,09,13,10,03,18.00
2007,09,13,10,04,18.10
2007,09,13,10,05,18.10
2007,09,13,10,06,18.20
2007,09,13,10,07,18.20
2007,09,13,10,08,18.20
2007,09,13,10,09,18.20
2007,09,13,10,10,18.20
2007,09,13,10,11,18.20
2007,09,13,10,12,18.30
2007,09,13,10,13,18.30
2007,09,13,10,14,18.30
2007,09,13,10,15,18.30
2007,09,13,10,16,18.30
2007,09,13,10,17,18.40
2007,09,13,10,18,18.40
2007,09,13,10,19,18.50
2007,09,13,10,20,18.50
2007,09,13,10,21,18.60
2007,09,13,10,22,18.70
2007,09,13,10,23,18.80
2007,09,13,10,24,18.80
2007,09,13,10,25,18.80
2007,09,13,10,26,18.80
2007,09,13,10,27,18.90
2007,09,13,10,28,18.90
2007,09,13,10,29,18.90
2007,09,13,10,30,18.90
2007,09,13,10,31,18.90
2007,09,13,10,32,19.00
2007,09,13,10,33,19.10
2007,09,13,10,34,19.10
2007,09,13,10,35,19.10
2007,09,13,10,36,19.20
2007,09,13,10,37,19.20
2007,09,13,10,38,19.20
2007,09,13,10,39,19.30
2007,09,13,10,40,19.30
2007,09,13,10,41,19.40
2007,09,13,10,42,19.40
2007,09,13,10,43,19.50
2007,09,13,10,44,19.50
2007,09,13,10,45,19.50
2007,09,13,10,46,19.50
2007,09,13,10,47,19.60
2007,09,13,10,48,19.60
2007,09,13,10,49,19.70
2007,09,13,10,50,19.70
2007,09,13,10,51,19.70
2007,09,13,10,52,19.70
2007,09,13,10,53,19.70
2007,09,13,10,54,19.70
2007,09,13,10,55,19.70
2007,09,13,10,56,19.80
2007,09,13,10,57,19.80
2007,09,13,10,58,19.80
2007,09,13,10,59,19.70
2007,09,13,11,00,19.60
2007,09,13,11,01,19.50
2007,09,13,11,02,19.40
2007,09,13,11,03,19.40
2007,09,13,11,04,19.30
2007,09,13,11,05,19.30
2007,09,13,11,06,19.40
2007,09,13,11,07,19.40
2007,09,13,11,08,19.40
2007,09,13,11,09,19.40
2007,09,13,11,10,19.40
2007,09,13,11,11,19.40
2007,09,13,11,12,19.40
2007,09,13,11,13,19.50
2007,09,13,11,14,19.50
2007,09,13,11,15,19.60
2007,09,13,11,16,19.60
2007,09,13,11,17,19.70
2007,09,13,11,18,19.70
2007,09,13,11,19,19.80
2007,09,13,11,20,19.90
2007,09,13,11,21,19.90
2007,09,13,11,22,19.90
2007,09,13,11,23,20.10
2007,09,13,11,24,20.10
2007,09,13,11,25,20.20
2007,09,13,11,26,20.20
2007,09,13,11,27,20.20
2007,09,13,11,28,20.20
2007,09,13,11,29,20.20
2007,09,13,11,30,20.20
2007,09,13,11,31,20.10
2007,09,13,11,32,20.10
2007,09,13,11,33,20.20
2007,09,13,11,34,20.20
2007,09,13,11,35,20.20
2007,09,13,11,36,20.20
2007,09,13,11,37,20.20
2007,09,13,11,38,20.20
2007,09,13,11,39,20.20
2007,09,13,11,40,20.20
2007,09,13,11,41,20.20
2007,09,13,11,42,20.20
2007,09,13,11,43,20.20
2007,09,13,11,44,20.20
2007,09,13,11,45,20.20
2007,09,13,11,46,20.20
2007,09,13,11,47,20.20
2007,09,13,11,48,20.20
2007,09,13,11,49,20.10
2007,09,13,11,50,20.10
2007,09,13,11,51,20.10
2007,09,13,11,52,20.10
2007,09,13,11,53,20.20
2007,09,13,11,54,20.10
2007,09,13,11,55,20.10
2007,09,13,11,56,19.90
2007,09,13,11,57,19.90
2007,09,13,11,58,19.90
2007,09,13,11,59,20.00
2007,09,13,12,00,20.10
2007,09,13,12,01,20.20
2007,09,13,12,02,20.20
2007,09,13,12,03,20.20
2007,09,13,12,04,20.40
2007,09,13,12,05,20.50
2007,09,13,12,06,20.50
2007,09,13,12,07,20.60
2007,09,13,12,08,20.70
2007,09,13,12,09,20.80
2007,09,13,12,10,20.80
2007,09,13,12,11,20.90
2007,09,13,12,12,21.00
2007,09,13,12,13,21.00
2007,09,13,12,14,21.10
2007,09,13,12,15,21.10
2007,09,13,12,16,21.10
2007,09,13,12,17,21.10
2007,09,13,12,18,21.20
2007,09,13,12,19,21.10
2007,09,13,12,20,21.20
2007,09,13,12,21,21.20
2007,09,13,12,22,21.20
2007,09,13,12,23,21.30
2007,09,13,12,24,21.30
2007,09,13,12,25,21.40
2007,09,13,12,26,21.50
2007,09,13,12,27,21.60
2007,09,13,12,28,21.60
2007,09,13,12,29,21.60
2007,09,13,12,30,21.60
2007,09,13,12,31,21.60
2007,09,13,12,32,21.60
2007,09,13,12,33,21.50
2007,09,13,12,34,21.40
2007,09,13,12,35,21.40
2007,09,13,12,36,21.40
2007,09,13,12,37,21.40
2007,09,13,12,38,21.30
2007,09,13,12,39,21.30
2007,09,13,12,40,21.30
2007,09,13,12,41,21.30
2007,09,13,12,42,21.30
2007,09,13,12,43,21.20
2007,09,13,12,44,21.20
2007,09,13,12,45,21.10
2007,09,13,12,46,21.10
2007,09,13,12,47,21.00
2007,09,13,12,48,21.00
2007,09,13,12,49,20.90
2007,09,13,12,50,20.80
2007,09,13,12,51,20.70
2007,09,13,12,52,20.70
2007,09,13,12,53,20.70
2007,09,13,12,54,20.70
2007,09,13,12,55,20.60
2007,09,13,12,56,20.60
2007,09,13,12,57,20.60
2007,09,13,12,58,20.60
2007,09,13,12,59,20.60
2007,09,13,13,00,20.70
2007,09,13,13,01,20.70
2007,09,13,13,02,20.70
2007,09,13,13,03,20.70
2007,09,13,13,04,20.80
2007,09,13,13,05,20.90
2007,09,13,13,06,20.90
2007,09,13,13,07,20.80
2007,09,13,13,08,20.80
2007,09,13,13,09,20.80
2007,09,13,13,10,20.70
2007,09,13,13,11,20.60
2007,09,13,13,12,20.60
2007,09,13,13,13,20.60
2007,09,13,13,14,20.60
2007,09,13,13,15,20.60
2007,09,13,13,16,20.60
2007,09,13,13,17,20.60
2007,09,13,13,18,20.70
2007,09,13,13,19,20.70
2007,09,13,13,20,20.80
2007,09,13,13,21,20.80
2007,09,13,13,22,20.90
2007,09,13,13,23,21.00
2007,09,13,13,24,21.00
2007,09,13,13,25,21.10
2007,09,13,13,26,21.20
2007,09,13,13,27,21.30
2007,09,13,13,28,21.30
2007,09,13,13,29,21.20
2007,09,13,13,30,21.20
2007,09,13,13,31,21.20
2007,09,13,13,32,21.20
2007,09,13,13,33,21.10
2007,09,13,13,34,21.00
2007,09,13,13,35,21.00
2007,09,13,13,36,21.00
2007,09,13,13,37,21.00
2007,09,13,13,38,21.10
2007,09,13,13,39,21.10
2007,09,13,13,40,21.20
2007,09,13,13,41,21.30
2007,09,13,13,42,21.40
2007,09,13,13,43,21.50
2007,09,13,13,44,21.60
2007,09,13,13,45,21.70
2007,09,13,13,46,21.70
2007,09,13,13,47,21.70
2007,09,13,13,48,21.80
2007,09,13,13,49,21.80
2007,09,13,13,50,21.90
2007,09,13,13,51,21.90
2007,09,13,13,52,21.90
2007,09,13,13,53,22.00
2007,09,13,13,54,22.00
2007,09,13,13,55,22.00
2007,09,13,13,56,22.00
2007,09,13,13,57,22.00
2007,09,13,13,58,22.00
2007,09,13,13,59,21.90
2007,09,13,14,00,21.80
2007,09,13,14,01,21.80
2007,09,13,14,02,21.70
2007,09,13,14,03,21.60
2007,09,13,14,04,21.60
2007,09,13,14,05,21.50
2007,09,13,14,06,21.40
2007,09,13,14,07,21.40
2007,09,13,14,08,21.40
2007,09,13,14,09,21.30
2007,09,13,14,10,21.40
2007,09,13,14,11,21.50
2007,09,13,14,12,21.60
2007,09,13,14,13,21.60
2007,09,13,14,14,21.80
2007,09,13,14,15,21.90
2007,09,13,14,16,22.00
2007,09,13,14,17,22.10
2007,09,13,14,18,22.20
2007,09,13,14,19,22.20
2007,09,13,14,20,22.10
2007,09,13,14,21,22.00
2007,09,13,14,22,21.90
2007,09,13,14,23,21.80
2007,09,13,14,24,21.80
2007,09,13,14,25,21.80
2007,09,13,14,26,21.80
2007,09,13,14,27,21.80
2007,09,13,14,28,21.90
2007,09,13,14,29,21.90
2007,09,13,14,30,22.00
2007,09,13,14,31,22.10
2007,09,13,14,32,22.20
2007,09,13,14,33,22.20
2007,09,13,14,34,22.30
2007,09,13,14,35,22.30
2007,09,13,14,36,22.30
2007,09,13,14,37,22.30
2007,09,13,14,38,22.30
2007,09,13,14,39,22.20
2007,09,13,14,40,22.20
2007,09,13,14,41,22.20
2007,09,13,14,42,22.30
2007,09,13,14,43,22.40
2007,09,13,14,44,22.50
2007,09,13,14,45,22.60
2007,09,13,14,46,22.60
2007,09,13,14,47,22.70
2007,09,13,14,48,22.80
2007,09,13,14,49,22.80
2007,09,13,14,50,22.90
2007,09,13,14,51,22.90
2007,09,13,14,52,22.90
2007,09,13,14,53,23.00
2007,09,13,14,54,23.10
2007,09,13,14,55,23.10
2007,09,13,14,56,23.20
2007,09,13,14,57,23.20
2007,09,13,14,58,23.20
2007,09,13,14,59,23.20
2007,09,13,15,00,23.30
2007,09,13,15,01,23.30
2007,09,13,15,02,23.30
2007,09,13,15,03,23.30
2007,09,13,15,04,23.20
2007,09,13,15,05,23.10
2007,09,13,15,06,22.90
2007,09,13,15,07,22.80
2007,09,13,15,08,22.60
2007,09,13,15,09,22.40
2007,09,13,15,10,22.40
2007,09,13,15,11,22.40
2007,09,13,15,12,22.40
2007,09,13,15,13,22.50
2007,09,13,15,14,22.60
2007,09,13,15,15,22.60
2007,09,13,15,16,22.60
2007,09,13,15,17,22.70
2007,09,13,15,18,22.70
2007,09,13,15,19,22.80
2007,09,13,15,20,22.90
2007,09,13,15,21,22.90
2007,09,13,15,22,23.00
2007,09,13,15,23,23.10
2007,09,13,15,24,23.10
2007,09,13,15,25,23.10
2007,09,13,15,26,23.20
2007,09,13,15,27,23.20
2007,09,13,15,28,23.20
2007,09,13,15,29,23.20
2007,09,13,15,30,23.30
2007,09,13,15,31,23.30
2007,09,13,15,32,23.30
2007,09,13,15,33,23.30
2007,09,13,15,34,23.30
2007,09,13,15,35,23.30
2007,09,13,15,36,23.30
2007,09,13,15,37,23.30
2007,09,13,15,38,23.30
2007,09,13,15,39,23.40
2007,09,13,15,40,23.40
2007,09,13,15,41,23.40
2007,09,13,15,42,23.40
2007,09,13,15,43,23.30
2007,09,13,15,44,23.30
2007,09,13,15,45,23.30
2007,09,13,15,46,23.30
2007,09,13,15,47,23.30
2007,09,13,15,48,23.30
2007,09,13,15,49,23.30
2007,09,13,15,50,23.30
2007,09,13,15,51,23.30
2007,09,13,15,52,23.30
2007,09,13,15,53,23.30
2007,09,13,15,54,23.30
2007,09,13,15,55,23.20
2007,09,13,15,56,23.20
2007,09,13,15,57,23.20
2007,09,13,15,58,23.20
2007,09,13,15,59,23.30
2007,09,13,16,00,23.30
2007,09,13,16,01,23.30
2007,09,13,16,02,23.30
2007,09,13,16,03,23.40
2007,09,13,16,04,23.50
2007,09,13,16,05,23.60
2007,09,13,16,06,23.70
2007,09,13,16,07,23.80
2007,09,13,16,08,23.90
2007,09,13,16,09,24.00
2007,09,13,16,10,24.10
2007,09,13,16,11,24.10
2007,09,13,16,12,24.20
2007,09,13,16,13,24.20
2007,09,13,16,14,24.30
2007,09,13,16,15,24.30
2007,09,13,16,16,24.30
2007,09,13,16,17,24.20
2007,09,13,16,18,24.20
2007,09,13,16,19,24.20
2007,09,13,16,20,24.20
2007,09,13,16,21,24.10
2007,09,13,16,22,24.10
2007,09,13,16,23,24.10
2007,09,13,16,24,24.10
2007,09,13,16,25,24.00
2007,09,13,16,26,23.90
2007,09,13,16,27,23.80
2007,09,13,16,28,23.80
2007,09,13,16,29,23.80
2007,09,13,16,30,23.80
2007,09,13,16,31,23.80
2007,09,13,16,32,23.80
2007,09,13,16,33,23.70
2007,09,13,16,34,23.70
2007,09,13,16,35,23.80
2007,09,13,16,36,23.80
2007,09,13,16,37,23.80
2007,09,13,16,38,23.80
2007,09,13,16,39,23.80
2007,09,13,16,40,23.80
2007,09,13,16,41,23.90
2007,09,13,16,42,23.90
2007,09,13,16,43,24.00
2007,09,13,16,44,24.10
2007,09,13,16,45,24.10
2007,09,13,16,46,24.10
2007,09,13,16,47,24.10
2007,09,13,16,48,24.10
2007,09,13,16,49,24.10
2007,09,13,16,50,24.10
2007,09,13,16,51,24.10
2007,09,13,16,52,24.10
2007,09,13,16,53,24.10
2007,09,13,16,54,24.10
2007,09,13,16,55,24.10
2007,09,13,16,56,24.10
2007,09,13,16,57,24.10
2007,09,13,16,58,24.20
2007,09,13,16,59,24.20
2007,09,13,17,00,24.20
2007,09,13,17,01,24.20
2007,09,13,17,02,24.20
2007,09,13,17,03,24.20
2007,09,13,17,04,24.20
2007,09,13,17,05,24.20
2007,09,13,17,06,24.10
2007,09,13,17,07,24.10
2007,09,13,17,08,24.10
2007,09,13,17,09,24.10
2007,09,13,17,10,24.10
2007,09,13,17,11,24.10
2007,09,13,17,12,24.10
2007,09,13,17,13,24.10
2007,09,13,17,14,24.10
2007,09,13,17,15,24.10
2007,09,13,17,16,24.20
2007,09,13,17,17,24.20
2007,09,13,17,18,24.30
2007,09,13,17,19,24.30
2007,09,13,17,20,24.40
2007,09,13,17,21,24.40
2007,09,13,17,22,24.40
2007,09,13,17,23,24.40
2007,09,13,17,24,24.40
2007,09,13,17,25,24.40
2007,09,13,17,26,24.40
2007,09,13,17,27,24.50